Location: Muenchen
(48.1800°N, 11.5800°E)
Time: 03:26:49
(UTC+02:00)

Sich 1 Rocket - Visible Passes

Search period start: 25 October 2014 00:00
Search period end: 03 November 2014 23:00
Orbit: 617 x 655 km, 82.5° (Epoch: 24 October)

Date Brightness Start Highest point End Pass type
(mag) Time Alt. Az. Time Alt. Az. Time Alt. Az.
25 Oct 5.5 06:55:06 10° SSE 06:59:14 36° E 07:03:22 10° NNE visible
25 Oct 4.2 18:39:58 10° NNW 18:44:20 63° W 18:48:39 10° S visible
26 Oct 5.7 18:02:59 10° NNW 18:06:52 31° W 18:10:44 10° SSW visible
27 Oct 6.8 05:03:58 10° ESE 05:06:47 17° E 05:09:35 10° NE visible
27 Oct 6.8 18:26:32 10° NW 18:29:17 17° W 18:32:01 10° WSW visible
28 Oct 5.7 05:25:14 10° SSE 05:29:12 31° E 05:33:08 10° NNE visible
29 Oct 4.2 05:47:18 10° S 05:51:45 61° E 05:56:10 10° NNE visible
29 Oct 5.4 17:32:46 10° NNW 17:36:49 37° W 17:40:50 10° SSW visible
30 Oct 6.9 04:34:27 10° ESE 04:36:46 14° E 04:39:05 10° NE visible
30 Oct 3.6 06:09:57 10° SSW 06:14:25 67° W 06:18:53 10° N visible
30 Oct 6.6 17:56:08 10° NW 17:59:15 19° W 18:02:21 10° SW visible
31 Oct 5.9 04:55:24 10° SE 04:59:09 26° E 05:02:53 10° NNE visible
01 Nov 4.5 05:17:19 10° S 05:21:40 52° E 05:26:00 10° NNE visible
02 Nov 6.9 04:05:08 10° ESE 04:06:45 12° E 04:08:23 10° ENE visible
02 Nov 3.5 05:39:49 10° SSW 05:44:18 79° W 05:48:47 10° N visible
02 Nov 6.4 17:25:48 10° NW 17:29:12 22° W 17:32:36 10° SW visible
03 Nov 6.0 04:25:37 10° SE 04:29:06 23° E 04:32:34 10° NE visible
03 Nov 4.0 06:02:52 10° SW 06:07:05 40° WNW 06:11:17 10° N visible
03 Nov 6.9 17:50:02 10° WNW 17:51:32 12° W 17:53:02 10° WSW visible
